微厘空间一号 S1星 (CENTISPACE-1 S1)

导读 | 豆包AI

**微厘空间一号S1星(CENTISPACE-1 S1)**是中国研制发射的技术试验卫星,由中国科学院研发、哈尔滨工业大学运营。该星于2018年9月29日在酒泉卫星发射中心由快舟一号甲运载火箭发射升空,重量97千克,运行在700公里高度的太阳同步轨道,属于中国“微厘空间”低轨导航增强星座的首发星,旨在为北斗等全球卫星导航系统提供性能增强验证,目前仍在轨稳定运行。

Basic Information
目录编号:
43636
目录名称:
CENTISPACE-1 S1
国际标识:
2018-075A
轨道中心:
EARTH
卫星名称:
微厘空间一号 S1星
卫星全名:
微厘空间一号 S1星 (CENTISPACE-1 S1)
卫星状态:
在轨 (已飞行2745 天)
发射日期:
2018-09-29 UTC
国别 :
中国 (CN)
星等 :
--
Orbit Information
数据来源 国际轨道数据 AOE轨道数据
星历时间 2026-04-05T05:53:21+0800
12小时前
查看轨道信息
2026-04-04T09:00:00+0800
1天前
查看轨道信息
半长轴 7071.574km 7071.563km
偏心率 0.0008422 0.0008325
轨道倾角 97.880° 97.879°
近地点辐角 1.387° 3.673°
升交点赤经 122.328° 121.501°
平近点角 358.735° 104.703°
近地点 687.481km 687.538km
远地点 699.393km 699.314km
周期 98.636分钟 98.635分钟
每日圈数 14.599186 14.59922
Detailed Information
平衡模式:
三轴稳定
覆盖范围:
全球
运营商:
哈尔滨工业大学
运营商所在国:
中国
制造商(研发单位):
中国科学院
制造商所在国:
中国
使用方式:
暂无
Satellite Introduction
“微厘空间”卫星星座(CentiSpace Constellation)也称“微厘空间”低轨卫星导航增强系统,是由160颗低轨卫星及地面系统构成的天地一体化星座系统,对中国北斗等卫星导航系统进行性能增强该卫星仍在工作。
2D Orbit Map
3D Orbit Map
Orbit Altitude Analysis Chart
Orbit Inclination Analysis Chart
Orbit Comprehensive Analysis Chart
View Comprehensive Chart